Total_Precipitation_Accumulation
1.29 1.32 1.25 1.23 1.13 1.28 1.54 1.74 1.71 1.87 1.99 1.81 1.55 1.42 1.27 1.11 1.01 0.98 1.13 1.33 1.26 1.25 1.38 1.41 1.37 1.28 1.25 1.12 1.01 0.93 0.84 0.78 0.65 0.47 0.35 0.30 0.27 0.25 0.23 0.23 0.22 0.23 0.19
1.53 1.58 1.49 1.40 1.17 1.26 1.50 1.74 1.78 1.92 1.90 1.89 1.54 1.44 1.31 1.27 1.14 1.09 1.18 1.30 1.29 1.17 1.17 1.31 1.41 1.42 1.42 1.34 1.16 0.95 0.85 0.80 0.69 0.53 0.41 0.34 0.30 0.29 0.31 0.33 0.31 0.24 0.16
1.83 1.85 1.68 1.44 1.33 1.51 1.62 1.63 1.67 2.04 1.87 1.73 1.52 1.58 1.53 1.46 1.28 1.18 1.22 1.26 1.10 1.06 1.02 1.06 1.22 1.37 1.55 1.57 1.43 1.22 0.99 0.83 0.70 0.53 0.42 0.34 0.28 0.26 0.28 0.31 0.35 0.30 0.20
1.87 1.99 1.69 1.39 1.55 1.74 1.71 1.64 1.68 1.89 1.89 1.95 1.82 1.70 1.60 1.46 1.15 1.09 1.07 1.02 1.01 0.82 0.89 1.08 1.17 1.23 1.54 1.71 1.71 1.64 1.33 1.01 0.74 0.55 0.44 0.35 0.31 0.26 0.22 0.21 0.27 0.31 0.24
1.29 1.34 1.04 0.98 1.25 1.34 1.22 1.19 1.44 1.59 1.60 1.73 1.73 1.49 1.30 1.13 0.96 0.91 0.91 0.75 0.81 0.78 0.75 0.95 1.13 1.20 1.47 1.77 2.02 2.05 1.81 1.44 1.09 0.78 0.65 0.54 0.42 0.32 0.24 0.20 0.21 0.26 0.24
0.85 0.89 0.72 0.73 0.99 1.05 0.97 1.09 1.19 1.23 1.17 1.25 1.16 0.92 0.89 0.77 0.77 0.73 0.64 0.63 0.63 0.60 0.67 0.80 0.98 0.91 1.24 1.60 1.89 2.03 2.03 1.80 1.43 1.16 0.99 0.83 0.70 0.51 0.32 0.23 0.22 0.23 0.21
0.74 0.83 0.72 0.80 0.95 0.95 0.92 0.98 1.04 0.96 0.81 0.98 1.04 0.75 0.60 0.56 0.58 0.54 0.50 0.50 0.45 0.50 0.64 0.79 0.92 0.94 0.83 0.97 1.30 1.58 1.97 2.11 1.79 1.42 1.24 1.10 0.98 0.76 0.52 0.39 0.29 0.24 0.19
0.63 0.72 0.66 0.58 0.63 0.65 0.60 0.65 0.82 0.84 0.74 0.87 0.96 0.83 0.58 0.53 0.49 0.37 0.42 0.42 0.42 0.51 0.62 0.68 0.84 0.99 0.96 1.03 0.86 1.01 1.50 1.89 2.04 1.87 1.61 1.31 1.11 0.88 0.70 0.59 0.44 0.31 0.25
0.39 0.47 0.50 0.50 0.55 0.62 0.61 0.61 0.65 0.69 0.63 0.64 0.79 0.90 0.69 0.47 0.40 0.37 0.39 0.39 0.45 0.58 0.65 0.77 0.82 0.88 0.95 1.10 1.07 1.02 1.23 1.34 1.86 2.19 1.97 1.52 1.09 0.85 0.75 0.75 0.66 0.45 0.35
0.27 0.30 0.33 0.34 0.41 0.52 0.59 0.54 0.55 0.58 0.57 0.50 0.56 0.65 0.66 0.60 0.53 0.41 0.39 0.44 0.48 0.59 0.74 0.83 0.91 0.92 0.93 1.02 1.15 1.16 1.04 1.05 1.36 1.78 1.93 1.81 1.44 1.05 0.83 0.88 1.06 0.95 0.62
0.26 0.27 0.28 0.28 0.31 0.35 0.39 0.42 0.49 0.52 0.54 0.50 0.49 0.56 0.63 0.66 0.65 0.57 0.45 0.45 0.44 0.41 0.56 0.75 0.89 0.93 0.88 0.98 1.16 1.23 1.21 1.09 0.98 1.04 1.36 1.60 1.57 1.31 1.07 1.11 1.46 1.64 1.42
0.26 0.29 0.30 0.30 0.32 0.33 0.34 0.36 0.40 0.44 0.50 0.54 0.53 0.56 0.65 0.70 0.65 0.65 0.57 0.49 0.47 0.42 0.47 0.65 0.90 1.03 0.99 1.00 0.92 0.95 0.97 0.87 0.80 0.80 0.90 1.07 1.25 1.29 1.25 1.34 1.62 1.92 2.03
0.23 0.27 0.32 0.34 0.37 0.37 0.37 0.38 0.38 0.41 0.47 0.55 0.56 0.54 0.57 0.63 0.69 0.71 0.65 0.56 0.59 0.59 0.69 0.73 0.81 0.94 0.91 0.96 0.90 0.77 0.61 0.56 0.53 0.56 0.69 0.86 1.05 1.24 1.32 1.32 1.46 1.68 1.85
0.24 0.28 0.29 0.30 0.34 0.36 0.38 0.40 0.37 0.36 0.46 0.55 0.60 0.68 0.66 0.59 0.74 0.82 0.78 0.77 0.74 0.78 0.94 0.88 0.80 0.80 0.83 0.87 0.77 0.65 0.49 0.43 0.40 0.39 0.43 0.45 0.53 0.66 0.79 0.90 1.00 1.14 1.29
0.26 0.28 0.29 0.30 0.32 0.35 0.38 0.40 0.41 0.45 0.52 0.56 0.63 0.77 0.83 0.78 0.78 0.83 0.89 0.93 0.98 0.94 0.93 0.90 0.80 0.74 0.72 0.70 0.63 0.54 0.41 0.38 0.37 0.35 0.34 0.33 0.35 0.40 0.44 0.48 0.53 0.59 0.63
0.22 0.27 0.32 0.34 0.34 0.35 0.43 0.50 0.49 0.50 0.58 0.68 0.80 0.89 0.93 0.95 0.94 0.87 0.91 0.96 0.98 1.04 1.00 0.85 0.78 0.79 0.71 0.55 0.52 0.47 0.40 0.42 0.39 0.36 0.33 0.30 0.30 0.34 0.37 0.38 0.35 0.37 0.41
0.21 0.24 0.30 0.34 0.35 0.42 0.60 0.78 0.76 0.68 0.74 0.83 0.93 1.03 1.07 1.12 1.12 1.01 0.96 0.94 0.94 1.02 0.97 0.83 0.77 0.79 0.68 0.52 0.46 0.43 0.41 0.40 0.36 0.37 0.33 0.29 0.28 0.29 0.32 0.33 0.32 0.31 0.32
0.18 0.18 0.20 0.25 0.28 0.34 0.50 0.81 0.99 1.01 0.98 0.91 0.96 1.12 1.20 1.17 1.08 1.02 1.02 0.98 0.96 1.04 0.99 0.91 0.88 0.83 0.75 0.65 0.56 0.50 0.43 0.39 0.37 0.39 0.35 0.30 0.28 0.27 0.27 0.26 0.27 0.26 0.27
0.18 0.18 0.19 0.24 0.29 0.30 0.37 0.58 0.80 0.92 0.95 0.92 0.97 1.02 1.05 1.12 1.10 1.02 0.97 0.94 0.93 1.04 1.03 0.94 1.01 1.00 0.89 0.78 0.64 0.54 0.46 0.44 0.39 0.37 0.38 0.35 0.32 0.27 0.25 0.25 0.25 0.24 0.24
0.17 0.21 0.24 0.29 0.31 0.27 0.28 0.41 0.57 0.68 0.74 0.78 0.84 0.89 0.92 0.96 1.02 1.07 1.01 0.96 0.98 1.00 1.01 1.00 1.05 1.18 1.08 0.92 0.74 0.61 0.52 0.48 0.44 0.34 0.35 0.38 0.37 0.32 0.28 0.25 0.24 0.23 0.25
0.13 0.19 0.26 0.29 0.27 0.24 0.29 0.41 0.46 0.42 0.47 0.53 0.56 0.58 0.69 0.85 0.95 1.01 0.96 0.94 0.98 0.99 0.98 1.03 1.07 1.21 1.23 1.06 0.83 0.63 0.55 0.53 0.51 0.45 0.38 0.32 0.30 0.27 0.25 0.26 0.26 0.24 0.22
0.18 0.21 0.23 0.26 0.25 0.21 0.26 0.30 0.28 0.27 0.30 0.35 0.38 0.37 0.38 0.51 0.69 0.81 0.84 0.84 0.89 0.94 0.98 1.00 1.07 1.16 1.22 1.11 0.93 0.79 0.65 0.54 0.52 0.52 0.51 0.47 0.36 0.31 0.25 0.22 0.23 0.25 0.25
0.23 0.26 0.27 0.29 0.29 0.30 0.23 0.19 0.16 0.18 0.23 0.30 0.33 0.33 0.26 0.25 0.39 0.54 0.65 0.70 0.72 0.72 0.80 0.95 1.06 1.08 1.18 1.21 1.12 0.93 0.81 0.69 0.56 0.54 0.56 0.59 0.52 0.41 0.31 0.28 0.32 0.27 0.26
0.29 0.32 0.33 0.36 0.42 0.39 0.27 0.18 0.15 0.15 0.20 0.27 0.32 0.32 0.31 0.31 0.34 0.40 0.51 0.60 0.64 0.62 0.60 0.68 0.85 1.04 1.19 1.33 1.28 1.18 1.08 0.95 0.79 0.69 0.64 0.63 0.60 0.52 0.43 0.35 0.35 0.31 0.28
0.37 0.37 0.39 0.43 0.49 0.54 0.41 0.25 0.19 0.19 0.25 0.28 0.32 0.33 0.34 0.32 0.30 0.26 0.35 0.42 0.48 0.57 0.57 0.59 0.71 0.93 1.12 1.26 1.40 1.33 1.20 1.01 0.84 0.73 0.64 0.56 0.55 0.56 0.52 0.43 0.37 0.36 0.31
0.46 0.43 0.42 0.45 0.52 0.62 0.53 0.31 0.24 0.26 0.34 0.38 0.44 0.44 0.35 0.29 0.23 0.18 0.26 0.35 0.39 0.42 0.51 0.56 0.63 0.76 0.93 1.05 1.18 1.18 1.03 0.94 0.79 0.68 0.57 0.48 0.45 0.48 0.54 0.50 0.41 0.35 0.32